Warning: Javascript must be enabled to use all the features on this page!


Page Loading - Please Wait...

* We've detected you're using a mobile device. Find our Next Generation Station Page here.
Click to hideNews Bulletins

Peak Streamflow for Oregon

USGS 14165000 MOHAWK RIVER NEAR SPRINGFIELD, OR

Lane County, Oregon
Hydrologic Unit Code 17090004
Latitude  44°05'35", Longitude 122°57'22" NAD27
Drainage area 177  square miles
Gage datum 442.47 feet above NGVD29
Output formats
Table
Graph
Tab-separated file
peakfq (watstore) format
Reselect output format
Water
Year
Date Gage
Height
(feet)
Stream-
flow
(cfs)
1936 1936-01-11 17.043 5,550
1937 1937-04-15 15.70 5,340
1938 1938-03-18 18.00 6,480
1939 1939-02-15 13.59 4,400
1940 1940-02-28 10.30 2,880
1941 1941-01-18 9.30 2,550
1942 1941-11-15 16.30 5,650
1943 1943-01-01 21.30 8,160
1944 1943-11-04 10.10 2,760
1945 1945-02-13 13.87 3,840
1946 1945-12-28 22.10 8,600
1947 1946-12-15 18.00 6,490
1948 1948-01-07 20.78 7,890
1949 1949-02-18 21.02 8,010
1950 1950-01-22 18.69 6,840
1951 1950-10-29 18.60 6,790
1952 1951-12-05 13.673,6 4,430
1956 1955-12-22 22.901 9,2007
1964 1964-01-20 20.20 10,500
1965 1964-12-22 22.60 13,000
1966 1966-01-06 17.60 8,540
1967 1967-01-28   4,0001
1968 1968-02-23 13.001 4,070
1969 1968-12-05 14.461 5,830
1970 1970-01-23 14.77 6,240
1971 1971-01-18 16.411 6,740
1972 1972-01-21 21.26 11,800
1973 1972-12-24 9.38 2,890
1974 1974-01-16 18.76 9,580
1975 1974-12-27 11.171 2,800
1976 1976-01-08 19.701 8,000
1977 1977-03-09 5.67 1,300
1978 1977-12-15 16.27 7,400
1979 1979-02-07 14.76 6,230
1980 1980-01-13 12.93 5,000
1981 1980-12-04 16.97 7,980
1982 1981-12-06 18.62 9,420
1983 1983-02-18 15.50 6,780
1984 1984-02-13 20.21 10,800
1985 1984-11-30 12.84 4,910
1986 1986-02-23 18.17 9,040
1987 1986-11-28 13.80 5,910
1988 1988-01-10 12.792 4,850
1989 1989-01-10 16.742 7,690
1990 1990-01-08 12.402 4,600
1991 1991-01-12 9.69 3,0408
1992 1991-12-07 11.29 3,910
1993 1993-03-18 10.98 3,730
1994 1994-02-24 8.87 2,620
1995 1995-01-14 16.87 7,790
1996 1996-02-07 23.11 13,500
1997 1996-11-19 20.77 11,200
1999 1998-12-28 17.40 8,220
2000 1999-11-26 17.81 8,560
2001 2000-12-22 4.78 978
2002 2002-01-26 13.64 5,400
2003 2003-02-01 12.32 4,540
2004 2003-12-14 17.79 8,550
2005 2004-12-09 9.03 2,710
2006 2005-12-31 18.03 8,750
2007 2007-01-03 13.48 5,300
2008 2007-12-24 10.55 3,500
2009 2008-12-29 14.43 5,950
2010 2010-01-01 10.64 3,550
2011 2011-01-17 13.28 5,160
2012 2012-01-19 17.81 8,490
2013 2012-11-20 12.81 4,610
2014 2014-02-14 15.041 5,870
2015 2014-12-21 12.461,2 3,580
2016 2015-12-18 15.42 6,140
2017 2017-03-09 14.54 6,030
2018 2018-04-08 8.92 2,570
2019 2019-04-08 16.851 7,980
?
  Peak Gage-Height Qualification Codes.
?
  Peak Streamflow Qualification Codes.